Home   Weather   Salta   Past weeks

Flag for Argentina Past Weather in Salta, Salta, Argentina — Yesterday and Last 2 Weeks

Now
50 °F

Drizzle. Mostly cloudy.


Feels Like: 50 °F
Forecast: 52 / 65 °F
Wind: No wind

Location: Salta Aerodrome

Current Time: Oct 22, 2017 at 5:28:54 am

Latest Report: Oct 22, 2017 at 5:00 am


Visibility: 2 mi

Pressure: 30.30 "Hg (26.27 "Hg at 1184m altitude)

Humidity: 94%

Dew Point: 48 °F

Location of SaltaLocation

Past Weather in Salta — Graph

°F

Salta Temperature Yesterday

Maximum temperature yesterday: 81 °F (at 12:00 pm)
Minimum temperature yesterday: 55 °F (at 7:00 am)
Average temperature yesterday: 63 °F

High & Low Weather Summary for the Past Weeks

 TemperatureHumidityPressure
High97 °F (Oct 18, 2:00 pm)100% (Oct 10, 4:00 am)30.33 "Hg (Oct 10, 4:00 am)
Low39 °F (Oct 14, 5:00 am)15% (Oct 17, 5:00 pm)29.68 "Hg (Oct 18, 4:00 pm)
Average64 °F67%29.99 "Hg
* Reported Oct 7 4:00 am — Oct 22 4:00 am, Salta. Weather by CustomWeather, © 2017

Note: Actual official high and low records may vary slightly from our data, if they occured in-between our weather recording intervals... More about our weather records

Advertising

Salta Weather History for the Previous 24 Hours

Scroll right to see more
 ConditionsComfort  
Time TempWeatherWind HumidityBarometerVisibility
4:00 am
Sun, Oct 22
52 °FDrizzle. Mostly cloudy.No wind94%30.30 "Hg2 mi
3:00 am52 °FDrizzle. Mostly cloudy.2 mph94%30.30 "Hg2 mi
2:00 am54 °FDrizzle. Mostly cloudy.9 mph94%30.30 "Hg3 mi
1:00 am54 °FDrizzle. Mostly cloudy.9 mph94%30.30 "Hg3 mi
12:00 am55 °FDrizzle. Overcast.2 mph88%30.30 "Hg4 mi
11:00 pm
Sat, Oct 21
57 °FDrizzle. Mostly cloudy.No windN/AN/A5 mi
10:00 pm57 °FLight rain. Overcast.2 mph94%30.27 "Hg4 mi
9:00 pm57 °FLight rain. Mostly cloudy.2 mph88%30.21 "Hg3 mi
8:00 pm59 °FLight rain. Mostly cloudy.2 mph82%30.18 "Hg4 mi
7:00 pm63 °FScattered showers. Mostly cloudy.6 mph68%30.12 "HgN/A
1:00 pm77 °FScattered clouds.15 mph47%30.04 "HgN/A
12:00 pm81 °FScattered clouds.9 mph39%30.01 "HgN/A
11:00 am77 °FScattered clouds.9 mph47%30.04 "HgN/A
10:00 am73 °FScattered clouds.6 mph57%30.04 "HgN/A
9:00 am66 °FScattered clouds.2 mph73%30.04 "HgN/A
8:00 am61 °FScattered clouds.2 mph83%30.01 "HgN/A
7:00 am55 °FScattered clouds.6 mph88%29.98 "HgN/A
6:00 am57 °FClear.6 mph82%29.95 "Hg10 mi
5:00 am59 °FClear.9 mph82%29.92 "Hg10 mi
Weather by CustomWeather, © 2017

See weather overview